Location: *
(32.3300°N, 34.8500°E)
Time: 18:34:17
(UTC+00:00)

BREEZE-M DEB (TANK) - Pass Details

Date: 22 October 2019
Orbit: 324 x 14859 km, 49.6° (Epoch: 15 November)

Event Time Altitude Azimuth Distance (km) Brightness Sun altitude
Exits shadow 01:39:53 72° 262° (W) 1,089 4.1 -28.0°
Maximum altitude 01:40:29 80° 322° (NW) 1,139 4.3 -27.8°
Drops below altitude 10° 01:56:12 10° 50° (NE) 7,106 9.3 -24.5°
Sets 02:06:54 0° 52° (NE) 10,616 10.4 -22.3°
